カタログに戻る

STARLINK-11734

運用中通信VLEO
NORAD 64329·PAYLOAD·🇺🇸 United States

打ち上げ Jun 10, 2025 から Cape Canaveral Space Force Station

Loading…

次のパス (今後24時間)

TLE

最新Source: CelesTrak SupGP

元期: Sep 14, 2026, 20:56 UTC

1 64329C 25124N   26257.87270833 -.00060149  00000+0 -46689-3 0  2572
2 64329  43.0003 328.4216 0001657 262.9215  76.8717 15.70882325    16

AllMySatでSTARLINK-11734をリアルタイム追跡

Download on the App Store